Regional Weather Roundup
Issued by NWS

Home | Current Version | Previous Version | Text Only | Print | Product List | Glossary On
Versions: 1 2 3 4 5 6 7 8 9 10 11 12 13 14 15 16 17 18 19 20 21 22 23 24 25 26 27 28 29 30 31 32 33 34 35 36 37 38 39 40 41 42 43 44 45 46 47 48 49 50
000
ASUS43 KDTX 251310
RWRMI
MICHIGAN HOURLY REGIONAL WEATHER ROUNDUP
NATIONAL WEATHER SERVICE DETROIT/PONTIAC MI
800 AM EST SUN JAN 25 2015

NOTE: "FAIR" INDICATES FEW OR NO CLOUDS BELOW 12,000 FEET WITH NO
SIGNIFICANT WEATHER AND/OR OBSTRUCTION TO VISIBILITY.

MIZ047>049-052>055-059>063-066>070-074>076-081>083-251400-
SOUTHEAST LOWER MICHIGAN

CITY           SKY/WX    TMP DP  RH WIND       PRES   REMARKS
ADRIAN         CLOUDY    31  28  89 E17       29.78R
ALMA           PTCLDY    20  14  77 NE9       29.89R
ANN ARBOR      CLOUDY    28  22  78 NE15      29.80R
BAD AXE        FLURRIES  19  14  79 N13       29.91R
DETROIT CITY   CLOUDY    26  17  68 N7        29.85R
DETROIT        CLOUDY    26  18  71 N14       29.83R
FLINT          CLOUDY    24  14  65 NE15      29.87R
GROSSE ILE     CLOUDY    27  21  80 NE18      29.81R
HILLSDALE      CLOUDY    32  32  99 E12G17    29.75R FOG
HOWELL         CLOUDY    24  19  80 NE14      29.81R

CITY           SKY/WX    TMP DP  RH WIND       PRES   REMARKS
JACKSON        CLOUDY    28  23  81 NE9       29.79R
LAMBERTVILLE   CLOUDY    32  28  86 E8        29.80R FOG
LANSING        CLOUDY    23  16  74 NE13      29.84R
LAPEER         NOT AVBL
MASON          CLOUDY    24  19  80 NE12G18   29.81R
MONROE         CLOUDY    28  25  86 E13       29.80R
MT. CLEMENS    CLOUDY    24  16  73 N12       29.83R
PONTIAC        CLOUDY    22  14  71 NE12        N/A
PORT HOPE        N/A     20  12  71 N15G26    29.90R
PORT HURON     CLOUDY    23  18  80 N10G18    29.87R
TRI CITIES     MOCLDY    19  12  74 NE15      29.91R
YPSILANTI      CLOUDY    30  20  66 NE16      29.81S
$$
MIZ043>046-050>051-056>058-064>065-071>073-077>080-251400-
SOUTHWEST LOWER MICHIGAN

CITY           SKY/WX    TMP DP  RH WIND       PRES   REMARKS
BATTLE CREEK   CLOUDY    30  23  75 NE16      29.78R
BENTON HARBOR  LGT SNOW  33  31  92 NE13G21   29.74R FOG
BIG RAPIDS     PTCLDY    16  12  84 NE7       29.87R
COLDWATER      CLOUDY    32  31  96 MISG      29.75R
HOLLAND        CLOUDY    31  23  72 NE13      29.79R
GRAND RAPIDS   MOCLDY    26  18  71 NE21G28   29.81R
KALAMAZOO      CLOUDY    32  28  85 NE12G23   29.77R
MARSHALL       CLOUDY    28  23  82 NE8       29.78R
MUSKEGON       CLOUDY    26  16  65 NE20G25   29.83R
$$
MIZ016>042-251400-
NORTHERN LOWER MICHIGAN

CITY           SKY/WX    TMP DP  RH WIND       PRES   REMARKS
ALPENA         PTCLDY     7   2  80 N6        29.96R
BEAVER ISLAND  PTCLDY     4   1  83 CALM      29.99R
BELLAIRE       PTCLDY     5   0  78 CALM      29.97R
CADILLAC       PTCLDY     8   5  86 NE7       29.87R
CHARLEVOIX     PTCLDY     5  -3  68 E7        29.99R
FRANKFORT      MOSUNNY   13   6  72 NE13      29.94R WCI  -1
GAYLORD        PTCLDY     2   0  91 NE8       29.89R
GRAYLING       PTCLDY     3  -1  85 NE3       29.92R
HARBOR SPRINGS PTCLDY     0  -4  81 CALM      29.96R
HOUGHTON LAKE  PTCLDY     7   4  87 NE5       29.90R
MANISTEE       PTCLDY    16   5  62 NE13      29.91R
OSCODA         FLURRIES  13   8  78 N8        29.93R
PELLSTON       PTCLDY    -3  -8  79 CALM      29.98R
TRAVERSE CITY  PTCLDY    10   3  73 NE9       29.95R
$$
MIZ007>008-015-251400-
EASTERN UPPER MICHIGAN

CITY           SKY/WX    TMP DP  RH WIND       PRES   REMARKS
KINROSS        MOCLDY    -6  -8  92 N6        29.97R
MACKINAC ISLAN PTCLDY     3  -3  74 NE12G17   29.97R WCI -13
NEWBERRY       MOCLDY     1   1 100 N5        29.97R
S. S. MARIE    MOCLDY    -6 -12  75 CALM      29.99R
$$
MIZ004>006-011>014-085-251400-
CENTRAL UPPER MICHIGAN

CITY           SKY/WX    TMP DP  RH WIND       PRES   REMARKS
MANISTIQUE     FLURRIES   8   5  88 CALM      29.99R
ESCANABA       CLOUDY    16   7  67 NE10      29.98R
MENOMINEE      CLOUDY    16   9  73 E16G23    29.97R
SAWYER-GWINN   LGT SNOW  14   9  79 NE10G16   29.95R
$$
MIZ001>003-009>011-084-251400-
WESTERN UPPER MICHIGAN

CITY           SKY/WX    TMP DP  RH WIND       PRES   REMARKS
IRON MOUNTAIN  FLURRIES  15   7  70 NE9       29.94R
HOUGHTON       FLURRIES  12   6  77 NE6       30.00R
COPPER HARBOR    N/A     16   8  71 E13       30.04R
IRONWOOD       CLOUDY    14   7  73 NE8       29.94R
$$

ABBREVIATIONS USED IN REMARKS
   TC - TEMPERATURE IN CELSIUS
  WCI - WIND CHILL INDEX
   HX - HEAT INDEX
  VSB - VISIBILITY




USA.gov is the U.S. government's official web portal to all federal, state and local government web resources and services.